Aérodrome :
LOGIN :

S'inscrire | Disclaimer

   EN    FR    IT 

 










Légende :    VFR   VFR Marginal   IFR   IFR Intensif   IFR Très Intensif
Visi : 
Plafond : 
>= 8 km
>= 3000ft
5 à 8 km
1000 à 3000 ft
1500m à 5 km
500 à 1000 ft
800 à 1500m
200 à 500 ft
< 800m
< 200 ft
Symboles :   Orages  Brouillard  Fortes neiges  Fortes précipitations  Vent > 20 kt
SIGMETs :   Divers  Orages  Givrage  Turbulence  Onde Orograph.  Cendres Volcan.







- Altitude de l'aérodrome : 120 ft
- Code IATA : MME
- Voir les cartes d'approche


EGNV - Durham Tees valley

DERNIER METAR :
  • 151150Z 31016KT 3500 SHRA FEW008 SCT015CB 04/02 Q1001

METARs EXPIRÉS :
  • 151120Z 32014KT 9000 -SHRA FEW010 SCT025CB 04/02 Q1000
  • 151050Z 31017KT 9999 5000N -SHRA FEW015 SCT025CB 04/02 Q1000
  • 151020Z 32016KT 9999 FEW010 SCT020CB 04/02 Q0999
  • 150950Z 31014KT 9999 VCSH FEW015 FEW020CB 03/01 Q0998
  • 150920Z 32012KT 9999 FEW015 SCT020CB 03/01 Q0998

TAF TAF EGNV
Valide du 15 à 12h jusqu'au 15 à 21h UTC


151101Z 1512/1521 32012KT 9999 SCT025
TEMPO 1512/1518 33018G28KT 7000 SHRA BKN012
ATIS : +44 9012 018 111
Pas de NOTAMs connus pour ce terrain.



MET'MAP, la Météo Aéronautique d'un coup d'oeil ! - Copyright ORBIFLY Décembre 2007 - Disclaimer

ORBIFLY MET'MAP TEAM :

Programmation & Développement : Alexandra Zaïnal
Conception & Développement : Baudouin d'Aumeries
Co-Programmation & Développement : Marc-Olivier Méhu
Soutien technique & logistique : Manuel Goepfert

Contact : metmap@orbifly.com




SOURCES & CREDITS :

   NOAA